TimeMST,TemperatureF,Dew PointF,Humidity,Sea Level PressureIn,VisibilityMPH,Wind Direction,Wind SpeedMPH,Gust SpeedMPH,PrecipitationIn,Events,Conditions,WindDirDegrees,DateUTC
12:58 AM,72.7,40.8,32,29.83,10.0,SSW,5.8,-,N/A,,Clear,210,2013-05-06 07:58:00
1:58 AM,72.0,42.4,34,29.82,10.0,South,6.9,-,N/A,,Mostly Cloudy,190,2013-05-06 08:58:00
2:58 AM,70.7,44.1,38,29.82,10.0,SSW,3.5,-,N/A,,Mostly Cloudy,210,2013-05-06 09:58:00
3:58 AM,70.0,45.1,41,29.83,10.0,SW,4.6,-,N/A,,Overcast,220,2013-05-06 10:58:00
4:58 AM,69.4,46.4,44,29.84,10.0,WSW,8.1,-,N/A,,Overcast,240,2013-05-06 11:58:00
5:58 AM,67.8,46.0,46,29.86,10.0,SW,5.8,-,N/A,,Clear,230,2013-05-06 12:58:00
6:58 AM,69.6,45.7,42,29.89,10.0,SW,4.6,-,N/A,,Clear,230,2013-05-06 13:58:00
8:58 AM,74.1,45.1,35,29.92,10.0,South,8.1,-,N/A,,Clear,170,2013-05-06 15:58:00
9:56 AM,75.2,46.4,36,29.96,10.0,SSW,6.9,-,N/A,,Clear,210,2013-05-06 16:56:00
10:56 AM,77.0,46.4,34,29.96,10.0,South,10.4,-,N/A,,Clear,190,2013-05-06 17:56:00
11:58 AM,78.4,46.0,32,29.92,10.0,WSW,8.1,-,N/A,,Clear,250,2013-05-06 18:58:00
12:58 PM,80.1,46.4,31,29.90,10.0,Variable,5.8,-,N/A,,Clear,0,2013-05-06 19:58:00
1:58 PM,82.4,46.8,29,29.88,10.0,South,8.1,-,N/A,,Clear,170,2013-05-06 20:58:00
2:58 PM,83.1,46.8,28,29.85,10.0,South,5.8,-,N/A,,Clear,170,2013-05-06 21:58:00
3:58 PM,83.8,46.9,28,29.83,10.0,SW,13.8,16.1,N/A,,Scattered Clouds,220,2013-05-06 22:58:00
4:58 PM,84.6,46.6,27,29.82,10.0,SW,10.4,-,N/A,,Partly Cloudy,230,2013-05-06 23:58:00
5:58 PM,84.2,44.8,25,29.80,10.0,SW,10.4,-,N/A,,Partly Cloudy,230,2013-05-07 00:58:00
6:58 PM,82.2,44.6,27,29.80,10.0,SW,10.4,-,N/A,,Clear,230,2013-05-07 01:58:00
7:58 PM,79.7,43.3,28,29.82,10.0,WSW,6.9,-,N/A,,Clear,240,2013-05-07 02:58:00
8:58 PM,76.5,43.3,31,29.84,10.0,West,5.8,-,0.00,,Clear,270,2013-05-07 03:58:00
9:58 PM,75.9,42.3,30,29.89,10.0,SSW,9.2,-,N/A,,Clear,210,2013-05-07 04:58:00
10:58 PM,74.3,47.5,39,29.86,10.0,SW,12.7,-,N/A,,Clear,220,2013-05-07 05:58:00
11:58 PM,72.3,45.1,38,29.87,10.0,SW,9.2,-,N/A,,Clear,230,2013-05-07 06:58:00